Chandler, OK

7:13 AM CDT on October 18, 2019 (GMT -0500)
Chandler Municipal

Weather History for KCQB - September, 2019

Change the Weather History Date:

Thursday, September 19, 2019

  Actual Average (KCUH) Record (KCUH)
Temperature  
Mean Temperature 80 °F -  
Max Temperature 89 °F 82 °F 103 °F (1954)
Min Temperature 70 °F 60 °F 42 °F (1991)
Cooling Degree Days 14    
Growing Degree Days 30 (Base 50)    
Moisture  
Dew Point 70 °F    
Average Humidity 77    
Maximum Humidity 97    
Minimum Humidity 48    
Precipitation  
Precipitation 0.00 in - - ()
Sea Level Pressure  
Sea Level Pressure 29.96 in    
Wind  
Wind Speed 4 mph ()    
Max Wind Speed 14 mph    
Max Gust Speed 20 mph    
Visibility 9.2 miles    
Events      
Averages and records for this station are not official NWS values.
T = Trace of Precipitation, MM = Missing Value Source: Averaged Metar Reports

Daily Weather History Graph

Daily Weather History Graph

Search for Another Location

Airport or City:

Astronomy

Sep. 19, 2019 Rise Set
Actual Time 7:12 AM CDT 7:28 PM CDT
Civil Twilight 6:47 AM CDT 7:54 PM CDT
Nautical Twilight 6:17 AM CDT 8:24 PM CDT
Astronomical Twilight 5:46 AM CDT 8:54 PM CDT
Moon 10:48 PM CDT (9/19) 12:07 PM CDT (9/19)
Length of Visible Light 13h 07m
Length of Day
12h 15m
Waning Gibbous, 74% of the Moon is Illuminated
Sep 19
Waning Gibbous
Sep 21
Last Quarter
Sep 28
New
Oct 5
First Quarter
Oct 13
Full

Hourly Weather History & Observations

Time (CDT) Temp. Heat Index Dew Point Humidity Pressure Visibility Wind Dir Wind Speed Gust Speed Precip Events Conditions
12:15 AM 75.7 °F - 70.9 °F 85% 29.96 in 10.0 mi ESE 4.6 mph - N/A   Clear
12:35 AM 75.2 °F - 70.5 °F 85% 29.96 in 10.0 mi SE 4.6 mph - N/A   Clear
12:55 AM 74.3 °F - 70.2 °F 87% 29.96 in 10.0 mi SSE 3.5 mph - N/A   Clear
1:15 AM 73.8 °F - 70.0 °F 88% 29.97 in 3.5 mi Calm Calm - N/A   Clear
1:35 AM 73.4 °F - 70.0 °F 89% 29.96 in 10.0 mi Calm Calm - N/A   Clear
1:55 AM 73.4 °F - 69.8 °F 88% 29.96 in 5.0 mi Calm Calm - N/A   Clear
2:15 AM 72.5 °F - 69.6 °F 91% 29.96 in 10.0 mi Calm Calm - N/A   Clear
2:35 AM 72.0 °F - 69.6 °F 92% 29.97 in 10.0 mi Calm Calm - N/A   Clear
2:55 AM 72.3 °F - 69.4 °F 91% 29.96 in 10.0 mi Calm Calm - N/A   Clear
3:15 AM 72.9 °F - 69.4 °F 89% 29.96 in 10.0 mi South 3.5 mph - N/A   Clear
3:35 AM 72.7 °F - 69.4 °F 90% 29.95 in - Calm Calm - N/A   Unknown
4:15 AM 70.2 °F - 68.9 °F 96% 29.96 in 10.0 mi Calm Calm - N/A   Clear
4:55 AM 70.2 °F - 69.3 °F 97% 29.96 in 10.0 mi East 3.5 mph - N/A   Clear
5:15 AM 70.9 °F - 69.3 °F 95% 29.96 in 10.0 mi ESE 3.5 mph - N/A   Clear
5:35 AM 70.5 °F - 68.9 °F 95% 29.96 in 7.0 mi Calm Calm - N/A   Clear
5:55 AM 70.2 °F - 68.9 °F 96% 29.96 in 10.0 mi Calm Calm - N/A   Clear
6:15 AM 70.3 °F - 69.1 °F 96% 29.96 in 10.0 mi ESE 4.6 mph - N/A   Clear
6:35 AM 70.5 °F - 69.3 °F 96% 29.97 in 10.0 mi East 4.6 mph - N/A   Clear
6:55 AM 70.3 °F - 69.1 °F 96% 29.97 in 10.0 mi ESE 4.6 mph - N/A   Clear
7:15 AM 70.2 °F - 68.9 °F 96% 29.97 in 7.0 mi ESE 3.5 mph - N/A   Clear
7:35 AM 70.5 °F - 69.3 °F 96% 29.98 in 5.0 mi ESE 4.6 mph - N/A   Clear
7:55 AM 70.7 °F - 69.1 °F 95% 29.99 in 10.0 mi ESE 3.5 mph - N/A   Clear
8:15 AM 70.9 °F - 69.4 °F 95% 29.99 in 10.0 mi ESE 4.6 mph - N/A   Clear
8:35 AM 71.4 °F - 69.6 °F 94% 29.99 in 10.0 mi ESE 3.5 mph - N/A   Clear
8:55 AM 72.7 °F - 70.5 °F 93% 30.00 in 10.0 mi SE 3.5 mph - N/A   Clear
9:15 AM 75.6 °F - 70.9 °F 85% 30.00 in 10.0 mi ESE 4.6 mph - N/A   Clear
9:35 AM 77.4 °F - 71.8 °F 83% 30.00 in 7.0 mi SSE 4.6 mph - N/A   Clear
9:55 AM 78.4 °F - 71.6 °F 79% 30.00 in 10.0 mi SSE 6.9 mph - N/A   Clear
10:35 AM 81.3 °F 85.6 °F 71.6 °F 72% 30.00 in 10.0 mi ESE 8.1 mph - N/A   Clear
10:55 AM 82.4 °F 87.0 °F 71.2 °F 69% 30.01 in 10.0 mi SSE 11.5 mph - N/A   Scattered Clouds
11:35 AM 83.5 °F 88.2 °F 70.9 °F 66% 30.01 in 7.0 mi SSE 10.4 mph - N/A   Scattered Clouds
11:55 AM 83.8 °F 88.3 °F 70.5 °F 64% 30.00 in 10.0 mi SSE 9.2 mph - N/A   Scattered Clouds
12:15 PM 84.4 °F 89.4 °F 70.9 °F 64% 30.00 in 10.0 mi ESE 9.2 mph - N/A   Scattered Clouds
12:55 PM 85.8 °F 91.1 °F 71.1 °F 61% 29.98 in 10.0 mi SE 6.9 mph - N/A   Scattered Clouds
1:15 PM 86.5 °F 92.1 °F 71.1 °F 60% 29.98 in 10.0 mi SE 9.2 mph - N/A   Clear
1:35 PM 87.3 °F 93.6 °F 72.0 °F 60% 29.97 in 10.0 mi SE 8.1 mph - N/A   Scattered Clouds
1:55 PM 88.2 °F 93.7 °F 70.7 °F 56% 29.97 in 7.0 mi SE 12.7 mph 19.6 mph N/A   Haze
2:15 PM 87.1 °F 91.6 °F 69.8 °F 56% 29.97 in 10.0 mi ESE 10.4 mph - N/A   Mostly Cloudy
2:35 PM 87.6 °F 92.7 °F 70.2 °F 56% 29.96 in 10.0 mi SE 9.2 mph - N/A   Scattered Clouds
2:55 PM 87.4 °F 91.9 °F 69.3 °F 55% 29.96 in 10.0 mi ESE 8.1 mph 18.4 mph N/A   Scattered Clouds
3:15 PM 86.4 °F 90.7 °F 69.4 °F 57% 29.95 in 10.0 mi SE 6.9 mph - N/A   Mostly Cloudy
3:35 PM 88.7 °F 93.0 °F 69.3 °F 52% 29.94 in 10.0 mi East 11.5 mph - N/A   Scattered Clouds
3:55 PM 89.6 °F 95.2 °F 70.3 °F 53% 29.93 in 5.0 mi East 13.8 mph - N/A   Haze
4:35 PM 88.2 °F 93.3 °F 70.0 °F 55% 29.92 in 10.0 mi SE 9.2 mph - N/A   Scattered Clouds
4:55 PM 88.2 °F 90.9 °F 66.9 °F 49% 29.91 in 10.0 mi SE 12.7 mph - N/A   Scattered Clouds
5:15 PM 88.3 °F 90.9 °F 66.2 °F 48% 29.91 in 10.0 mi SE 13.8 mph - N/A   Clear
5:35 PM 88.0 °F 90.7 °F 66.6 °F 49% 29.91 in 7.0 mi ESE 12.7 mph - N/A   Clear
5:55 PM 87.6 °F 91.1 °F 68.2 °F 52% 29.91 in 7.0 mi ESE 9.2 mph - N/A   Scattered Clouds
6:15 PM 86.7 °F 91.7 °F 70.5 °F 58% 29.92 in 10.0 mi East 8.1 mph - N/A   Scattered Clouds
6:35 PM 85.8 °F 91.1 °F 71.1 °F 61% 29.91 in 10.0 mi East 6.9 mph - N/A   Scattered Clouds
6:55 PM 84.4 °F 88.7 °F 70.2 °F 62% 29.90 in 10.0 mi East 8.1 mph - N/A   Scattered Clouds
7:15 PM 81.9 °F 85.8 °F 70.2 °F 68% 29.90 in 10.0 mi East 5.8 mph - N/A   Clear
7:35 PM 80.1 °F 83.3 °F 70.2 °F 72% 29.91 in 10.0 mi East 6.9 mph - N/A   Clear
7:55 PM 79.0 °F - 70.2 °F 74% 29.91 in 10.0 mi East 6.9 mph - N/A   Scattered Clouds
8:15 PM 78.4 °F - 70.2 °F 76% 29.92 in 7.0 mi East 5.8 mph - N/A   Clear
8:35 PM 78.4 °F - 70.2 °F 76% 29.93 in 4.0 mi East 6.9 mph - N/A   Haze
8:55 PM 78.3 °F - 70.2 °F 76% 29.93 in 10.0 mi East 8.1 mph - N/A   Clear
9:15 PM 78.4 °F - 70.2 °F 76% 29.94 in 10.0 mi East 6.9 mph - N/A   Clear
9:35 PM 78.1 °F - 70.0 °F 76% 29.95 in 10.0 mi ESE 5.8 mph - N/A   Clear
9:55 PM 77.7 °F - 70.0 °F 77% 29.96 in 10.0 mi ESE 5.8 mph - N/A   Clear
10:15 PM 77.0 °F - 69.6 °F 78% 29.95 in 10.0 mi SE 4.6 mph - N/A   Clear
10:55 PM 75.7 °F - 69.8 °F 82% 29.95 in 10.0 mi ESE 5.8 mph - N/A   Clear
11:15 PM 75.0 °F - 69.6 °F 83% 29.95 in 10.0 mi ESE 3.5 mph - N/A   Clear
11:35 PM 74.3 °F - 69.6 °F 85% 29.95 in 10.0 mi East 4.6 mph - N/A   Clear
11:55 PM 74.3 °F - 69.4 °F 85% 29.96 in 10.0 mi ESE 4.6 mph - N/A   Clear